• Join FlightAware (Why Join?)
  • Login
  • US Flag 
12:04AM EDT


 

Airport Tracker/Info


-or-


 

Live Flight TrackerFlight Track Log ✈ UCA3596 ✈ 14-Jan-2014 ✈ KBGM - KIAD

Flight Track Log - Related Links

Times and Time Zones

All times are in EST time to prevent confusion due to time zone crossing. See the UCA3596 flight status page for this flight to view local times or setup timezone preferences in your user account.

Time Position Orientation Groundspeed Altitude Reporting Facility
EST Latitude Longitude Course Direction KTS MPH feet Rate Location/Type
02:53PM 42.2394 -76.0394 209° Southwest 258 297 3,300  Level New York Center
02:54PM 42.1939 -76.0833 216° Southwest 198 228 4,400 1,140 Climbing New York Center
02:55PM 42.1506 -76.1189 211° Southwest 198 228 5,600 1,200 Climbing New York Center
02:56PM 42.1050 -76.1600 214° Southwest 198 228 6,900 1,380 Climbing New York Center
02:57PM 42.0578 -76.1953 209° Southwest 198 228 8,400 1,380 Climbing New York Center
02:58PM 42.0167 -76.2281 211° Southwest 192 221 9,700 1,320 Climbing New York Center
02:59PM 41.9252 -76.1145 209° Southwest  Level Estimated
02:59PM 41.9775 -76.2639 214° Southwest 185 213 11,100  Level New York Center
03:00PM 41.9322 -76.2992 210° Southwest 175 201 12,000 420 Climbing New York Center
03:01PM 41.8803 -76.3394 210° Southwest 196 226 12,000  Level New York Center
03:02PM 41.8303 -76.3828 213° Southwest 218 251 12,000 600 Level New York Center
03:03PM 41.7825 -76.4231 212° Southwest 218 251 13,200 1,260 Climbing New York Center
03:04PM 41.7394 -76.4528 207° Southwest 194 223 14,600 1,140 Climbing New York Center
03:05PM 41.7028 -76.4831 212° Southwest 172 198 15,500 660 Climbing New York Center
03:06PM 41.6658 -76.5133 211° Southwest 167 192 16,000 240 Climbing New York Center
03:07PM 41.6289 -76.5433 211° Southwest 167 192 16,000 -300 Level New York Center
03:08PM 41.5836 -76.5783 210° Southwest 181 208 15,400 -1,020 Descending New York Center
03:09PM 41.5272 -76.6233 211° Southwest 207 238 14,000 -720 Descending New York Center
03:10PM 41.4772 -76.6633 211° Southwest 218 251 14,000  Level New York Center
03:11PM 41.4272 -76.7058 213° Southwest 218 251 14,000  Level New York Center
03:12PM 41.3772 -76.7486 213° Southwest 218 251 14,000  Level New York Center
03:13PM 41.3256 -76.7825 206° Southwest 218 251 14,000  Level New York Center
03:14PM 41.2667 -76.7939 188° South 207 238 14,000  Level New York Center
03:15PM 41.2097 -76.8028 187° South 207 238 14,000  Level New York Center
03:16PM 41.1508 -76.8139 188° South 212 244 14,000  Level New York Center
03:17PM 41.0961 -76.8256 189° South 217 250 14,000  Level New York Center
03:18PM 41.0394 -76.8369 189° South 217 250 14,000  Level New York Center
03:19PM 40.9803 -76.8511 190° South 217 250 14,000  Level New York Center
03:20PM 40.9172 -76.8619 187° South 217 250 14,000  Level New York Center
03:21PM 40.8583 -76.8731 188° South 224 258 14,000  Level New York Center
03:22PM 40.7994 -76.8842 188° South 218 251 14,000  Level New York Center
03:23PM 40.7400 -76.9008 192° South 224 258 14,000  Level New York Center
03:24PM 40.6786 -76.9200 193° South 224 258 14,000  Level New York Center
03:25PM 40.6214 -76.9394 194° South 224 258 14,000  Level New York Center
03:26PM 40.5600 -76.9558 191° South 224 258 14,000  Level New York Center
03:27PM 40.5047 -76.9756 195° South 224 258 14,000  Level New York Center
03:28PM 40.4478 -76.9922 193° South 224 258 14,000  Level New York Center
03:29PM 40.3883 -77.0086 192° South 224 258 14,000  Level New York Center
03:30PM 40.3333 -77.0256 193° South 224 258 14,000 -660 Level New York Center
03:32PM 40.2167 -77.0667 195° South 226 260 12,100 -1,140 Descending Potomac TRACON
03:33PM 40.1500 -77.0833 191° South 236 272 10,800 -1,320 Descending Potomac TRACON
03:34PM 40.1000 -77.1000 194° South 245 282 9,500 -900 Descending Potomac TRACON
03:35PM 40.0333 -77.1167 191° South 240 276 9,000 -300 Descending Potomac TRACON
03:36PM 39.9667 -77.1333 191° South 233 268 9,000  Level Potomac TRACON
03:37PM 39.9000 -77.1667 201° Southwest 233 268 9,000  Level Potomac TRACON
03:38PM 39.8500 -77.1833 194° South 231 266 9,000 -420 Level Potomac TRACON
03:39PM 39.7833 -77.2333 210° Southwest 239 275 8,300 -540 Descending Potomac TRACON
03:40PM 39.7167 -77.2667 201° Southwest 244 281 8,000 -420 Descending Potomac TRACON
03:41PM 39.6500 -77.2833 191° South 251 289 7,500 -540 Descending Potomac TRACON
03:42PM 39.5833 -77.3000 191° South 260 299 7,000 -240 Descending Potomac TRACON
03:43PM 39.5167 -77.3333 201° Southwest 251 289 7,100  Climbing Potomac TRACON
03:44PM 39.4500 -77.3500 191° South 247 284 7,100 -300 Level Potomac TRACON
03:45PM 39.4000 -77.3667 194° South 254 292 6,600 -840 Descending Potomac TRACON
03:46PM 39.3167 -77.3667 180° South 271 312 5,600 -960 Descending Potomac TRACON
03:47PM 39.2500 -77.3667 180° South 261 300 4,800 -900 Descending Potomac TRACON
03:48PM 39.1833 -77.3667 180° South 250 288 4,000 -420 Descending Potomac TRACON
03:49PM 39.1167 -77.3500 169° South 246 283 4,000  Level Potomac TRACON
03:50PM 39.0500 -77.3500 180° South 251 289 4,000  Level Potomac TRACON
03:51PM 38.9833 -77.3500 180° South 256 295 4,000  Level Potomac TRACON
03:52PM 38.9167 -77.3500 180° South 256 295 4,100 -180 Climbing Potomac TRACON
03:53PM 38.8500 -77.3667 191° South 235 270 3,700 -720 Descending Potomac TRACON
03:54PM 38.7833 -77.3667 180° South 236 272 2,700 -900 Descending Potomac TRACON
03:55PM 38.7333 -77.4000 207° Southwest 237 273 2,100 -360 Descending Potomac TRACON
03:56PM 38.7833 -77.4333 333° Northwest 198 228 2,100  Level Potomac TRACON
03:57PM 38.8333 -77.4333 360° North 188 216 2,100 -360 Level Potomac TRACON
03:58PM 38.8833 -77.4333 360° North 157 181 1,400 -840 Descending Potomac TRACON
03:59PM 38.9167 -77.4333 360° North 128 147 600 -840 Descending Potomac TRACON
04:01PM 38.9333 -77.4500 349° North  Level FlightAware Approximate
04:08PM 38.9474 -77.4599 349° North  Level Estimated